Time,TemperatureF,DewpointF,PressureIn,WindDirection,WindDirectionDegrees,WindSpeedMPH,WindSpeedGustMPH,Humidity,HourlyPrecipIn,Conditions,Clouds,dailyrainin,SolarRadiationWatts/m^2,SoftwareType,DateUTC
2013-01-07 00:01:00,27.0,16.0,30.09,SSE,158,4.0,5.8,63,0.00,CLR,SCT,0.00,0.0,WeatherDisplay:10.37,2013-01-07 06:01:00,
2013-01-07 00:06:00,27.0,16.0,30.09,SSW,202,3.1,3.6,63,0.00,CLR,SCT,0.00,0.0,WeatherDisplay:10.37,2013-01-07 06:06:00,
2013-01-07 00:11:00,26.8,15.9,30.09,South,180,4.3,5.9,63,0.00,CLR,SCT,0.00,0.0,WeatherDisplay:10.37,2013-01-07 06:11:00,
2013-01-07 00:16:00,26.6,16.1,30.09,SSW,202,3.1,4.6,64,0.00,CLR,SCT,0.00,0.0,WeatherDisplay:10.37,2013-01-07 06:16:00,
2013-01-07 00:21:00,26.6,16.1,30.09,South,180,3.6,4.6,64,0.00,CLR,SCT,0.00,0.0,WeatherDisplay:10.37,2013-01-07 06:21:00,
2013-01-07 00:26:00,26.2,15.7,30.09,SSE,158,3.1,4.6,64,0.00,CLR,SCT,0.00,0.0,WeatherDisplay:10.37,2013-01-07 06:26:00,
2013-01-07 00:31:00,26.2,16.1,30.09,SSW,202,4.5,6.9,65,0.00,CLR,SCT,0.00,0.0,WeatherDisplay:10.37,2013-01-07 06:31:00,
2013-01-07 00:36:00,26.2,16.4,30.09,SSW,202,4.9,5.8,66,0.00,CLR,SCT,0.00,0.0,WeatherDisplay:10.37,2013-01-07 06:36:00,
2013-01-07 00:42:00,26.2,16.4,30.09,South,180,4.5,5.8,66,0.00,CLR,SCT,0.00,0.0,WeatherDisplay:10.37,2013-01-07 06:42:00,
2013-01-07 00:47:00,26.4,16.9,30.09,SSE,158,4.7,6.2,67,0.00,CLR,SCT,0.00,0.0,WeatherDisplay:10.37,2013-01-07 06:47:00,
2013-01-07 00:52:00,26.8,17.3,30.09,SSE,158,5.6,8.1,67,0.00,CLR,SCT,0.00,0.0,WeatherDisplay:10.37,2013-01-07 06:52:00,
2013-01-07 00:57:00,27.0,17.1,30.09,South,180,5.9,8.1,66,0.00,CLR,SCT,0.00,0.0,WeatherDisplay:10.37,2013-01-07 06:57:00,
2013-01-07 01:02:00,27.3,17.5,30.09,SSE,158,5.9,5.9,66,0.00,CLR,SCT,0.00,0.0,WeatherDisplay:10.37,2013-01-07 07:02:00,
2013-01-07 01:07:00,27.5,18.0,30.09,SSE,158,4.0,6.2,67,0.00,CLR,SCT,0.00,0.0,WeatherDisplay:10.37,2013-01-07 07:07:00,
2013-01-07 01:12:00,27.9,18.0,30.06,SSW,202,4.7,6.9,66,0.00,CLR,SCT,0.00,0.0,WeatherDisplay:10.37,2013-01-07 07:12:00,
2013-01-07 01:18:00,27.9,17.6,30.06,SSE,158,4.3,6.9,65,0.00,CLR,SCT,0.00,0.0,WeatherDisplay:10.37,2013-01-07 07:18:00,
2013-01-07 01:23:00,27.9,16.9,30.06,SSE,158,4.3,5.8,63,0.00,CLR,SCT,0.00,0.0,WeatherDisplay:10.37,2013-01-07 07:23:00,
2013-01-07 01:28:00,27.7,16.3,30.06,SSW,202,3.3,5.6,62,0.00,CLR,SCT,0.00,0.0,WeatherDisplay:10.37,2013-01-07 07:28:00,
2013-01-07 01:33:00,27.9,16.9,30.06,SSE,158,4.5,5.8,63,0.00,CLR,SCT,0.00,0.0,WeatherDisplay:10.37,2013-01-07 07:33:00,
2013-01-07 01:38:00,27.7,16.7,30.06,SE,135,4.3,6.4,63,0.00,CLR,SCT,0.00,0.0,WeatherDisplay:10.37,2013-01-07 07:38:00,
2013-01-07 01:43:00,27.7,16.3,30.06,SSW,202,5.4,6.9,62,0.00,CLR,SCT,0.00,0.0,WeatherDisplay:10.37,2013-01-07 07:43:00,
2013-01-07 01:49:00,27.5,16.2,30.06,SSW,202,4.5,6.0,62,0.00,CLR,SCT,0.00,0.0,WeatherDisplay:10.37,2013-01-07 07:49:00,
2013-01-07 01:54:00,27.3,16.0,30.06,SSW,202,6.0,8.1,62,0.00,CLR,SCT,0.00,0.0,WeatherDisplay:10.37,2013-01-07 07:54:00,
2013-01-07 01:59:00,27.7,16.7,30.06,East,90,5.4,6.9,63,0.00,CLR,SCT,0.00,0.0,WeatherDisplay:10.37,2013-01-07 07:59:00,
2013-01-07 02:04:00,28.0,17.1,30.06,South,180,7.1,10.4,63,0.00,CLR,SCT,0.00,0.0,WeatherDisplay:10.37,2013-01-07 08:04:00,
2013-01-07 02:09:00,28.0,16.7,30.06,SSW,202,5.9,10.4,62,0.00,CLR,SCT,0.00,0.0,WeatherDisplay:10.37,2013-01-07 08:09:00,
2013-01-07 02:14:00,28.4,17.0,30.06,South,180,5.6,8.7,62,0.00,CLR,SCT,0.00,0.0,WeatherDisplay:10.37,2013-01-07 08:14:00,
2013-01-07 02:19:00,28.4,16.7,30.06,South,180,5.9,9.2,61,0.00,CLR,SCT,0.00,0.0,WeatherDisplay:10.37,2013-01-07 08:19:00,
2013-01-07 02:25:00,28.4,16.3,30.06,SW,225,6.7,8.1,60,0.00,CLR,SCT,0.00,0.0,WeatherDisplay:10.37,2013-01-07 08:25:00,
2013-01-07 02:30:00,28.6,16.4,30.03,SSE,158,7.4,9.7,60,0.00,CLR,SCT,0.00,0.0,WeatherDisplay:10.37,2013-01-07 08:30:00,
2013-01-07 02:35:00,28.6,16.4,30.03,SSE,158,5.4,6.9,60,0.00,CLR,SCT,0.00,0.0,WeatherDisplay:10.37,2013-01-07 08:35:00,
2013-01-07 02:40:00,28.6,16.4,30.06,SSE,158,5.9,6.9,60,0.00,CLR,SCT,0.00,0.0,WeatherDisplay:10.37,2013-01-07 08:40:00,
2013-01-07 02:45:00,28.6,16.1,30.06,SSW,202,3.6,4.6,59,0.00,CLR,SCT,0.00,0.0,WeatherDisplay:10.37,2013-01-07 08:45:00,
2013-01-07 02:51:00,28.6,16.1,30.06,South,180,6.9,9.2,59,0.00,CLR,SCT,0.00,0.0,WeatherDisplay:10.37,2013-01-07 08:51:00,
2013-01-07 02:56:00,28.6,16.1,30.06,SSE,158,7.4,8.1,59,0.00,CLR,SCT,0.00,0.0,WeatherDisplay:10.37,2013-01-07 08:56:00,
2013-01-07 03:01:00,28.6,16.1,30.06,SSW,202,5.9,8.1,59,0.00,CLR,SCT,0.00,0.0,WeatherDisplay:10.37,2013-01-07 09:01:00,
2013-01-07 03:06:00,28.6,16.1,30.06,SSE,158,5.6,8.1,59,0.00,CLR,SCT,0.00,0.0,WeatherDisplay:10.37,2013-01-07 09:06:00,
2013-01-07 03:11:00,28.8,16.2,30.06,South,180,6.2,10.4,59,0.00,CLR,SCT,0.00,0.0,WeatherDisplay:10.37,2013-01-07 09:11:00,
2013-01-07 03:16:00,28.9,16.0,30.06,SW,225,6.4,8.7,58,0.00,CLR,SCT,0.00,0.0,WeatherDisplay:10.37,2013-01-07 09:16:00,
2013-01-07 03:21:00,28.9,16.0,30.06,SSW,202,6.4,8.1,58,0.00,CLR,SCT,0.00,0.0,WeatherDisplay:10.37,2013-01-07 09:21:00,
2013-01-07 03:26:00,29.1,16.2,30.03,SSW,202,6.2,8.1,58,0.00,CLR,SCT,0.00,0.0,WeatherDisplay:10.37,2013-01-07 09:26:00,
2013-01-07 03:31:00,29.3,15.9,30.03,South,180,6.4,9.2,57,0.00,CLR,SCT,0.00,0.0,WeatherDisplay:10.37,2013-01-07 09:31:00,
2013-01-07 03:36:00,29.5,16.1,30.03,SSE,158,8.7,11.5,57,0.00,CLR,SCT,0.00,0.0,WeatherDisplay:10.37,2013-01-07 09:36:00,
2013-01-07 03:41:00,29.7,16.3,30.06,SSW,202,8.1,9.4,57,0.00,CLR,SCT,0.00,0.0,WeatherDisplay:10.37,2013-01-07 09:41:00,
2013-01-07 03:46:00,30.0,16.2,30.06,SSW,202,9.7,10.4,56,0.00,CLR,SCT,0.00,0.0,WeatherDisplay:10.37,2013-01-07 09:46:00,
2013-01-07 03:51:00,30.2,16.4,30.06,SSW,202,8.7,12.5,56,0.00,CLR,SCT,0.00,0.0,WeatherDisplay:10.37,2013-01-07 09:51:00,
2013-01-07 03:56:00,30.6,16.3,30.06,SSE,158,6.0,9.2,55,0.00,CLR,SCT,0.00,0.0,WeatherDisplay:10.37,2013-01-07 09:56:00,
2013-01-07 04:01:00,30.4,15.7,30.06,SSW,202,5.4,8.1,54,0.00,CLR,SCT,0.00,0.0,WeatherDisplay:10.37,2013-01-07 10:01:00,
2013-01-07 04:06:00,30.2,16.0,30.06,South,180,5.9,8.1,55,0.00,CLR,SCT,0.00,0.0,WeatherDisplay:10.37,2013-01-07 10:06:00,
2013-01-07 04:11:00,30.4,15.7,30.03,SSW,202,6.0,8.1,54,0.00,CLR,SCT,0.00,0.0,WeatherDisplay:10.37,2013-01-07 10:11:00,
2013-01-07 04:16:00,30.2,16.0,30.03,ESE,112,7.1,9.2,55,0.00,CLR,SCT,0.00,0.0,WeatherDisplay:10.37,2013-01-07 10:16:00,
2013-01-07 04:22:00,30.2,16.0,30.03,SSE,158,7.4,9.2,55,0.00,CLR,SCT,0.00,0.0,WeatherDisplay:10.37,2013-01-07 10:22:00,
2013-01-07 04:27:00,30.2,16.0,30.03,ESE,112,7.1,9.2,55,0.00,CLR,SCT,0.00,0.0,WeatherDisplay:10.37,2013-01-07 10:27:00,
2013-01-07 04:32:00,30.2,16.0,30.03,SSW,202,6.2,10.4,55,0.00,CLR,SCT,0.00,0.0,WeatherDisplay:10.37,2013-01-07 10:32:00,
2013-01-07 04:37:00,30.2,16.0,30.03,SSE,158,6.9,10.4,55,0.00,CLR,SCT,0.00,0.0,WeatherDisplay:10.37,2013-01-07 10:37:00,
2013-01-07 04:42:00,30.4,15.7,30.00,SSE,158,8.1,10.5,54,0.00,CLR,SCT,0.00,0.0,WeatherDisplay:10.37,2013-01-07 10:42:00,
2013-01-07 04:47:00,30.6,15.9,30.00,ESE,112,7.8,11.5,54,0.00,CLR,SCT,0.00,0.0,WeatherDisplay:10.37,2013-01-07 10:47:00,
2013-01-07 04:52:00,30.6,15.9,30.00,SSW,202,4.7,7.6,54,0.00,CLR,SCT,0.00,0.0,WeatherDisplay:10.37,2013-01-07 10:52:00,
2013-01-07 04:57:00,30.6,15.9,30.00,ESE,112,5.6,8.1,54,0.00,CLR,SCT,0.00,0.0,WeatherDisplay:10.37,2013-01-07 10:57:00,
2013-01-07 05:02:00,30.6,15.9,30.00,SSE,158,7.1,10.4,54,0.00,CLR,SCT,0.00,0.0,WeatherDisplay:10.37,2013-01-07 11:02:00,
2013-01-07 05:07:00,30.6,15.9,30.00,WSW,248,7.8,11.5,54,0.00,CLR,SCT,0.00,0.0,WeatherDisplay:10.37,2013-01-07 11:07:00,
2013-01-07 05:12:00,30.6,15.9,30.00,WSW,248,7.6,10.4,54,0.00,CLR,SCT,0.00,0.0,WeatherDisplay:10.37,2013-01-07 11:12:00,
2013-01-07 05:17:00,30.2,15.5,30.00,SSW,202,6.4,9.4,54,0.00,CLR,SCT,0.00,0.0,WeatherDisplay:10.37,2013-01-07 11:17:00,
2013-01-07 05:22:00,30.2,16.0,30.00,SSW,202,6.9,8.5,55,0.00,CLR,SCT,0.00,0.0,WeatherDisplay:10.37,2013-01-07 11:22:00,
2013-01-07 05:27:00,30.2,16.0,29.97,South,180,7.4,9.7,55,0.00,CLR,SCT,0.00,0.0,WeatherDisplay:10.37,2013-01-07 11:27:00,
2013-01-07 05:33:00,30.2,16.0,29.97,SSW,202,7.6,8.1,55,0.00,CLR,SCT,0.00,0.0,WeatherDisplay:10.37,2013-01-07 11:33:00,
2013-01-07 05:38:00,30.0,15.8,29.97,SSE,158,6.2,8.7,55,0.00,CLR,SCT,0.00,0.0,WeatherDisplay:10.37,2013-01-07 11:38:00,
2013-01-07 05:43:00,30.0,15.8,29.94,SSW,202,6.9,10.4,55,0.00,CLR,SCT,0.00,0.0,WeatherDisplay:10.37,2013-01-07 11:43:00,
2013-01-07 05:48:00,30.0,15.8,29.94,SSW,202,8.5,15.0,55,0.00,CLR,SCT,0.00,0.0,WeatherDisplay:10.37,2013-01-07 11:48:00,
2013-01-07 05:53:00,30.4,15.7,29.94,SW,225,5.6,9.4,54,0.00,CLR,SCT,0.00,0.0,WeatherDisplay:10.37,2013-01-07 11:53:00,
2013-01-07 05:58:00,30.7,16.0,29.97,SSW,202,4.7,8.1,54,0.00,CLR,SCT,0.00,0.0,WeatherDisplay:10.37,2013-01-07 11:58:00,
2013-01-07 06:03:00,30.7,16.0,29.97,South,180,4.9,6.2,54,0.00,CLR,SCT,0.00,0.0,WeatherDisplay:10.37,2013-01-07 12:03:00,
2013-01-07 06:08:00,30.9,15.8,29.97,ESE,112,4.5,6.4,53,0.00,CLR,SCT,0.00,0.0,WeatherDisplay:10.37,2013-01-07 12:08:00,
2013-01-07 06:13:00,30.7,15.6,29.97,SSW,202,4.3,6.9,53,0.00,CLR,SCT,0.00,0.0,WeatherDisplay:10.37,2013-01-07 12:13:00,
2013-01-07 06:18:00,30.7,15.6,29.97,SSE,158,3.6,4.6,53,0.00,CLR,SCT,0.00,0.0,WeatherDisplay:10.37,2013-01-07 12:18:00,
2013-01-07 06:23:00,30.7,15.6,29.97,SSW,202,4.3,5.8,53,0.00,CLR,SCT,0.00,0.0,WeatherDisplay:10.37,2013-01-07 12:23:00,
2013-01-07 06:28:00,30.7,15.6,29.97,SSE,158,3.6,5.6,53,0.00,CLR,SCT,0.00,0.0,WeatherDisplay:10.37,2013-01-07 12:28:00,
2013-01-07 06:33:00,30.7,15.6,29.97,SSW,202,4.0,8.1,53,0.00,CLR,SCT,0.00,0.0,WeatherDisplay:10.37,2013-01-07 12:33:00,
2013-01-07 06:38:00,30.9,15.8,29.97,SSE,158,3.6,4.6,53,0.00,CLR,SCT,0.00,0.0,WeatherDisplay:10.37,2013-01-07 12:38:00,
2013-01-07 06:43:00,30.7,15.6,29.97,WSW,248,0.0,2.6,53,0.00,CLR,SCT,0.00,0.0,WeatherDisplay:10.37,2013-01-07 12:43:00,
2013-01-07 06:48:00,30.6,15.0,29.97,SSW,202,2.0,2.3,52,0.00,CLR,SCT,0.00,0.0,WeatherDisplay:10.37,2013-01-07 12:48:00,
2013-01-07 06:53:00,30.4,14.8,29.97,SSE,158,2.2,3.5,52,0.00,CLR,SCT,0.00,0.0,WeatherDisplay:10.37,2013-01-07 12:53:00,
2013-01-07 06:58:00,30.2,15.1,29.97,South,180,2.0,2.6,53,0.00,CLR,SCT,0.00,0.0,WeatherDisplay:10.37,2013-01-07 12:58:00,
2013-01-07 07:03:00,30.4,15.7,29.97,SSW,202,3.1,3.8,54,0.00,CLR,SCT,0.00,0.0,WeatherDisplay:10.37,2013-01-07 13:03:00,
2013-01-07 07:09:00,31.3,16.5,29.97,South,180,5.4,6.9,54,0.00,CLR,SCT,0.00,0.0,WeatherDisplay:10.37,2013-01-07 13:09:00,
2013-01-07 07:14:00,31.6,16.4,29.97,WSW,248,4.9,5.8,53,0.00,CLR,SCT,0.00,0.0,WeatherDisplay:10.37,2013-01-07 13:14:00,
2013-01-07 07:19:00,32.2,16.9,29.97,SW,225,4.9,5.8,53,0.00,CLR,SCT,0.00,0.0,WeatherDisplay:10.37,2013-01-07 13:19:00,
2013-01-07 07:24:00,32.5,16.8,29.97,SSW,202,5.9,8.1,52,0.00,OVC,SCT,0.00,0.0,WeatherDisplay:10.37,2013-01-07 13:24:00,
2013-01-07 07:29:00,32.5,16.8,29.97,South,180,4.7,6.9,52,0.00,OVC,SCT,0.00,0.0,WeatherDisplay:10.37,2013-01-07 13:29:00,
2013-01-07 07:34:00,32.9,17.2,29.97,SW,225,6.7,10.4,52,0.00,OVC,SCT,0.00,0.0,WeatherDisplay:10.37,2013-01-07 13:34:00,
2013-01-07 07:39:00,33.1,16.9,29.97,SSW,202,5.6,8.1,51,0.00,OVC,SCT,0.00,0.0,WeatherDisplay:10.37,2013-01-07 13:39:00,
2013-01-07 07:44:00,33.6,17.4,29.94,WSW,248,8.7,12.7,51,0.00,OVC,SCT,0.00,0.0,WeatherDisplay:10.37,2013-01-07 13:44:00,
2013-01-07 07:49:00,33.8,17.1,29.94,SSW,202,7.1,11.8,50,0.00,OVC,SCT,0.00,0.0,WeatherDisplay:10.37,2013-01-07 13:49:00,
2013-01-07 07:54:00,34.0,17.3,29.94,SSW,202,6.9,8.1,50,0.00,OVC,SCT,0.00,0.0,WeatherDisplay:10.37,2013-01-07 13:54:00,
2013-01-07 07:59:00,34.2,17.4,29.94,SSW,202,9.7,11.5,50,0.00,OVC,SCT,0.00,0.0,WeatherDisplay:10.37,2013-01-07 13:59:00,
2013-01-07 08:04:00,34.3,17.6,29.94,SW,225,8.7,11.5,50,0.00,OVC,SCT,0.00,0.0,WeatherDisplay:10.37,2013-01-07 14:04:00,
2013-01-07 08:09:00,34.3,17.1,29.94,SSW,202,9.8,11.5,49,0.00,OVC,SCT,0.00,0.0,WeatherDisplay:10.37,2013-01-07 14:09:00,
2013-01-07 08:14:00,34.3,17.1,29.94,WSW,248,6.4,10.0,49,0.00,OVC,SCT,0.00,0.0,WeatherDisplay:10.37,2013-01-07 14:14:00,
2013-01-07 08:19:00,34.3,17.1,29.94,SSW,202,6.2,12.7,49,0.00,OVC,SCT,0.00,0.0,WeatherDisplay:10.37,2013-01-07 14:19:00,
2013-01-07 08:24:00,34.3,17.1,29.94,SSE,158,7.1,9.7,49,0.00,OVC,SCT,0.00,0.0,WeatherDisplay:10.37,2013-01-07 14:24:00,
2013-01-07 08:29:00,34.3,17.6,29.94,SW,225,6.0,10.0,50,0.00,OVC,SCT,0.00,0.0,WeatherDisplay:10.37,2013-01-07 14:29:00,
2013-01-07 08:34:00,34.3,17.6,29.94,SSW,202,6.4,10.4,50,0.00,OVC,SCT,0.00,0.0,WeatherDisplay:10.37,2013-01-07 14:34:00,
2013-01-07 08:39:00,34.3,17.6,29.94,WSW,248,4.7,7.6,50,0.00,OVC,SCT,0.00,0.0,WeatherDisplay:10.37,2013-01-07 14:39:00,
2013-01-07 08:44:00,34.3,17.6,29.97,SSW,202,5.4,7.4,50,0.00,OVC,SCT,0.00,0.0,WeatherDisplay:10.37,2013-01-07 14:44:00,
2013-01-07 08:49:00,34.3,17.6,29.97,WSW,248,3.1,4.6,50,0.00,OVC,SCT,0.00,0.0,WeatherDisplay:10.37,2013-01-07 14:49:00,
2013-01-07 08:54:00,34.3,17.6,29.97,SSW,202,6.4,9.2,50,0.00,OVC,SCT,0.00,0.0,WeatherDisplay:10.37,2013-01-07 14:54:00,
2013-01-07 09:00:00,34.3,17.6,29.97,SSW,202,6.0,8.1,50,0.00,OVC,SCT,0.00,0.0,WeatherDisplay:10.37,2013-01-07 15:00:00,
2013-01-07 09:05:00,34.3,17.6,29.97,SSW,202,4.9,8.1,50,0.00,OVC,SCT,0.00,0.0,WeatherDisplay:10.37,2013-01-07 15:05:00,
2013-01-07 09:10:00,34.3,17.6,30.00,SSE,158,3.8,5.8,50,0.00,OVC,SCT,0.00,0.0,WeatherDisplay:10.37,2013-01-07 15:10:00,
2013-01-07 09:15:00,34.3,18.1,30.00,SW,225,5.6,7.4,51,0.00,OVC,SCT,0.00,0.0,WeatherDisplay:10.37,2013-01-07 15:15:00,
2013-01-07 09:20:00,34.3,18.1,30.00,SSW,202,4.9,6.9,51,0.00,OVC,SCT,0.00,0.0,WeatherDisplay:10.37,2013-01-07 15:20:00,
2013-01-07 09:25:00,34.3,18.1,30.00,WSW,248,4.9,6.9,51,0.00,OVC,SCT,0.00,0.0,WeatherDisplay:10.37,2013-01-07 15:25:00,
2013-01-07 09:30:00,34.3,18.1,30.00,SW,225,5.6,7.1,51,0.00,OVC,SCT,0.00,0.0,WeatherDisplay:10.37,2013-01-07 15:30:00,
2013-01-07 09:35:00,34.5,18.2,30.00,SW,225,5.6,6.0,51,0.00,OVC,SCT,0.00,0.0,WeatherDisplay:10.37,2013-01-07 15:35:00,
2013-01-07 09:41:00,34.5,18.2,30.00,WSW,248,5.4,6.2,51,0.00,OVC,SCT,0.00,0.0,WeatherDisplay:10.37,2013-01-07 15:41:00,
2013-01-07 09:46:00,34.5,18.2,30.00,West,270,6.4,8.1,51,0.00,OVC,SCT,0.00,0.0,WeatherDisplay:10.37,2013-01-07 15:46:00,
2013-01-07 09:51:00,34.7,18.4,30.00,SSW,202,6.0,8.1,51,0.00,OVC,SCT,0.00,0.0,WeatherDisplay:10.37,2013-01-07 15:51:00,
2013-01-07 09:56:00,34.7,18.4,30.00,South,180,6.0,8.1,51,0.00,OVC,SCT,0.00,0.0,WeatherDisplay:10.37,2013-01-07 15:56:00,
2013-01-07 10:01:00,34.9,18.6,30.00,WSW,248,3.1,11.5,51,0.00,OVC,SCT,0.00,0.0,WeatherDisplay:10.37,2013-01-07 16:01:00,
2013-01-07 10:06:00,34.9,18.6,30.00,SSW,202,4.0,5.8,51,0.00,OVC,SCT,0.00,0.0,WeatherDisplay:10.37,2013-01-07 16:06:00,
2013-01-07 10:11:00,35.1,18.7,30.03,WSW,248,4.0,5.8,51,0.00,OVC,SCT,0.00,0.0,WeatherDisplay:10.37,2013-01-07 16:11:00,
2013-01-07 10:16:00,35.2,18.9,30.03,SSW,202,4.5,4.6,51,0.00,OVC,SCT,0.00,0.0,WeatherDisplay:10.37,2013-01-07 16:16:00,
2013-01-07 10:21:00,35.2,18.9,30.03,SSW,202,4.9,7.6,51,0.00,OVC,SCT,0.00,0.0,WeatherDisplay:10.37,2013-01-07 16:21:00,
2013-01-07 10:26:00,35.2,18.4,29.97,SW,225,5.9,8.1,50,0.00,OVC,SCT,0.00,0.0,WeatherDisplay:10.37,2013-01-07 16:26:00,
2013-01-07 10:31:00,35.4,19.1,29.97,SSW,202,6.0,8.1,51,0.00,OVC,SCT,0.00,0.0,WeatherDisplay:10.37,2013-01-07 16:31:00,
2013-01-07 10:36:00,35.6,19.2,29.97,SW,225,4.5,6.9,51,0.00,OVC,SCT,0.00,0.0,WeatherDisplay:10.37,2013-01-07 16:36:00,
2013-01-07 10:41:00,35.6,18.8,30.03,SSW,202,5.4,6.9,50,0.00,OVC,SCT,0.00,0.0,WeatherDisplay:10.37,2013-01-07 16:41:00,
2013-01-07 10:46:00,35.8,18.9,30.03,WSW,248,4.0,5.8,50,0.00,OVC,SCT,0.00,0.0,WeatherDisplay:10.37,2013-01-07 16:46:00,
2013-01-07 10:51:00,36.0,19.1,30.03,SSW,202,5.6,7.8,50,0.00,OVC,SCT,0.00,0.0,WeatherDisplay:10.37,2013-01-07 16:51:00,
2013-01-07 10:56:00,36.1,19.3,30.00,SSW,202,4.9,6.9,50,0.00,OVC,SCT,0.00,0.0,WeatherDisplay:10.37,2013-01-07 16:56:00,
2013-01-07 11:01:00,36.5,19.6,30.00,SSW,202,5.4,6.9,50,0.00,OVC,SCT,0.00,100.0,WeatherDisplay:10.37,2013-01-07 17:01:00,
2013-01-07 11:07:00,36.7,18.8,30.00,SSW,202,6.9,9.2,48,0.00,OVC,SCT,0.00,0.0,WeatherDisplay:10.37,2013-01-07 17:07:00,
2013-01-07 11:12:00,36.7,18.8,30.00,SSW,202,7.4,9.2,48,0.00,OVC,SCT,0.00,0.0,WeatherDisplay:10.37,2013-01-07 17:12:00,
2013-01-07 11:17:00,36.7,19.8,30.00,SW,225,4.0,5.8,50,0.00,OVC,SCT,0.00,0.0,WeatherDisplay:10.37,2013-01-07 17:17:00,
2013-01-07 11:22:00,36.7,19.3,30.00,SW,225,6.9,8.1,49,0.00,OVC,SCT,0.00,0.0,WeatherDisplay:10.37,2013-01-07 17:22:00,
2013-01-07 11:27:00,36.7,19.8,30.00,SSW,202,5.6,5.8,50,0.00,OVC,SCT,0.00,0.0,WeatherDisplay:10.37,2013-01-07 17:27:00,
2013-01-07 11:32:00,36.7,19.8,30.00,WSW,248,4.7,6.9,50,0.00,OVC,SCT,0.00,0.0,WeatherDisplay:10.37,2013-01-07 17:32:00,
2013-01-07 11:37:00,36.7,19.3,30.00,SSW,202,6.2,7.4,49,0.00,OVC,SCT,0.00,0.0,WeatherDisplay:10.37,2013-01-07 17:37:00,
2013-01-07 11:43:00,36.9,19.9,30.00,WSW,248,4.3,6.9,50,0.00,OVC,SCT,0.00,0.0,WeatherDisplay:10.37,2013-01-07 17:43:00,
2013-01-07 11:48:00,36.9,19.9,30.00,WSW,248,4.7,8.1,50,0.00,OVC,SCT,0.00,0.0,WeatherDisplay:10.37,2013-01-07 17:48:00,
2013-01-07 11:53:00,36.9,19.9,30.00,SSW,202,5.6,6.9,50,0.00,OVC,SCT,0.00,0.0,WeatherDisplay:10.37,2013-01-07 17:53:00,
2013-01-07 11:58:00,36.9,19.5,29.97,WSW,248,6.9,8.1,49,0.00,OVC,SCT,0.00,0.0,WeatherDisplay:10.37,2013-01-07 17:58:00,
2013-01-07 12:03:00,36.9,19.9,29.97,WSW,248,5.4,5.8,50,0.00,OVC,SCT,0.00,0.0,WeatherDisplay:10.37,2013-01-07 18:03:00,
2013-01-07 12:08:00,37.0,20.1,29.97,SSW,202,7.4,10.4,50,0.00,OVC,SCT,0.00,0.0,WeatherDisplay:10.37,2013-01-07 18:08:00,
2013-01-07 12:13:00,37.2,19.8,29.94,WSW,248,5.4,8.1,49,0.00,OVC,SCT,0.00,0.0,WeatherDisplay:10.37,2013-01-07 18:13:00,
2013-01-07 12:18:00,37.4,20.0,29.94,SSW,202,5.4,6.9,49,0.00,OVC,SCT,0.00,0.0,WeatherDisplay:10.37,2013-01-07 18:18:00,
2013-01-07 12:23:00,37.2,20.3,29.94,SSW,202,5.4,8.1,50,0.00,OVC,SCT,0.00,0.0,WeatherDisplay:10.37,2013-01-07 18:23:00,
2013-01-07 12:28:00,37.2,19.8,29.94,WSW,248,6.0,6.9,49,0.00,OVC,SCT,0.00,0.0,WeatherDisplay:10.37,2013-01-07 18:28:00,
2013-01-07 12:33:00,37.4,20.0,29.94,WSW,248,7.1,8.1,49,0.00,OVC,SCT,0.00,0.0,WeatherDisplay:10.37,2013-01-07 18:33:00,
2013-01-07 12:38:00,37.6,20.1,29.94,SW,225,5.6,6.9,49,0.00,OVC,SCT,0.00,100.0,WeatherDisplay:10.37,2013-01-07 18:38:00,
2013-01-07 12:43:00,37.6,20.6,29.97,WSW,248,4.9,6.9,50,0.00,OVC,SCT,0.00,0.0,WeatherDisplay:10.37,2013-01-07 18:43:00,
2013-01-07 12:48:00,37.6,20.1,29.97,WSW,248,5.9,9.8,49,0.00,OVC,SCT,0.00,0.0,WeatherDisplay:10.37,2013-01-07 18:48:00,
2013-01-07 12:53:00,37.4,19.5,29.97,WSW,248,7.6,8.1,48,0.00,OVC,SCT,0.00,0.0,WeatherDisplay:10.37,2013-01-07 18:53:00,
2013-01-07 12:59:00,37.4,20.0,29.94,WSW,248,6.4,8.1,49,0.00,OVC,SCT,0.00,0.0,WeatherDisplay:10.37,2013-01-07 18:59:00,
2013-01-07 13:04:00,37.6,20.1,29.94,WNW,292,6.0,8.1,49,0.00,OVC,SCT,0.00,0.0,WeatherDisplay:10.37,2013-01-07 19:04:00,
2013-01-07 13:09:00,37.4,20.0,29.94,SSW,202,7.1,9.2,49,0.00,OVC,SCT,0.00,0.0,WeatherDisplay:10.37,2013-01-07 19:09:00,
2013-01-07 13:14:00,37.4,20.0,29.94,WSW,248,5.4,8.1,49,0.00,OVC,SCT,0.00,0.0,WeatherDisplay:10.37,2013-01-07 19:14:00,
2013-01-07 13:19:00,37.2,20.3,29.94,SSW,202,5.6,8.1,50,0.00,OVC,SCT,0.00,0.0,WeatherDisplay:10.37,2013-01-07 19:19:00,
2013-01-07 13:24:00,37.2,20.3,29.94,WSW,248,7.8,12.8,50,0.00,OVC,SCT,0.00,0.0,WeatherDisplay:10.37,2013-01-07 19:24:00,
2013-01-07 13:29:00,37.2,20.7,29.94,West,270,5.9,7.4,51,0.00,OVC,SCT,0.00,0.0,WeatherDisplay:10.37,2013-01-07 19:29:00,
2013-01-07 13:34:00,37.0,20.6,29.94,WSW,248,5.4,6.9,51,0.00,OVC,SCT,0.00,0.0,WeatherDisplay:10.37,2013-01-07 19:34:00,
2013-01-07 13:39:00,37.2,20.7,29.94,WSW,248,6.9,9.2,51,0.00,OVC,SCT,0.00,0.0,WeatherDisplay:10.37,2013-01-07 19:39:00,
2013-01-07 13:45:00,37.0,20.1,29.94,WSW,248,7.1,9.2,50,0.00,OVC,SCT,0.00,0.0,WeatherDisplay:10.37,2013-01-07 19:45:00,
2013-01-07 13:50:00,37.0,20.6,29.94,WNW,292,6.2,8.1,51,0.00,OVC,SCT,0.00,0.0,WeatherDisplay:10.37,2013-01-07 19:50:00,
2013-01-07 13:55:00,37.2,20.7,29.94,WSW,248,4.3,5.8,51,0.00,OVC,SCT,0.00,0.0,WeatherDisplay:10.37,2013-01-07 19:55:00,
2013-01-07 14:00:00,37.2,20.7,29.94,WSW,248,6.2,6.9,51,0.00,OVC,SCT,0.00,0.0,WeatherDisplay:10.37,2013-01-07 20:00:00,
2013-01-07 14:05:00,37.2,20.7,29.94,WSW,248,5.9,8.1,51,0.00,OVC,SCT,0.00,0.0,WeatherDisplay:10.37,2013-01-07 20:05:00,
2013-01-07 14:10:00,37.4,20.4,29.94,WSW,248,4.7,5.8,50,0.00,OVC,SCT,0.00,0.0,WeatherDisplay:10.37,2013-01-07 20:10:00,
2013-01-07 14:15:00,37.4,20.9,29.94,WSW,248,4.5,5.8,51,0.00,OVC,SCT,0.00,0.0,WeatherDisplay:10.37,2013-01-07 20:15:00,
2013-01-07 14:19:00,37.6,21.1,29.94,WSW,248,4.0,5.8,51,0.00,OVC,SCT,0.00,0.0,WeatherDisplay:10.37,2013-01-07 20:19:00,
2013-01-07 14:24:00,37.8,20.8,29.94,WNW,292,2.6,3.5,50,0.00,OVC,SCT,0.00,0.0,WeatherDisplay:10.37,2013-01-07 20:24:00,
2013-01-07 14:29:00,37.8,20.8,29.94,WNW,292,4.3,6.4,50,0.00,OVC,SCT,0.00,0.0,WeatherDisplay:10.37,2013-01-07 20:29:00,
2013-01-07 14:34:00,37.8,20.8,29.94,West,270,3.8,6.0,50,0.00,OVC,SCT,0.00,0.0,WeatherDisplay:10.37,2013-01-07 20:34:00,
2013-01-07 14:40:00,37.4,20.4,29.97,WSW,248,4.5,5.8,50,0.00,OVC,SCT,0.00,0.0,WeatherDisplay:10.37,2013-01-07 20:40:00,
2013-01-07 14:45:00,37.6,20.6,29.97,West,270,3.3,3.5,50,0.00,OVC,SCT,0.00,0.0,WeatherDisplay:10.37,2013-01-07 20:45:00,
2013-01-07 14:50:00,37.2,20.7,29.97,WSW,248,4.9,8.1,51,0.00,OVC,SCT,0.00,0.0,WeatherDisplay:10.37,2013-01-07 20:50:00,
2013-01-07 14:55:00,37.2,20.7,29.97,WSW,248,3.6,3.6,51,0.00,OVC,SCT,0.00,0.0,WeatherDisplay:10.37,2013-01-07 20:55:00,
2013-01-07 15:00:00,37.2,20.7,29.97,NW,315,2.6,3.5,51,0.00,OVC,SCT,0.00,0.0,WeatherDisplay:10.37,2013-01-07 21:00:00,
2013-01-07 15:05:00,37.0,20.6,29.97,WSW,248,3.8,4.6,51,0.00,OVC,SCT,0.00,0.0,WeatherDisplay:10.37,2013-01-07 21:05:00,
2013-01-07 15:10:00,37.0,21.0,29.97,WSW,248,3.3,3.6,52,0.00,OVC,SCT,0.00,0.0,WeatherDisplay:10.37,2013-01-07 21:10:00,
2013-01-07 15:15:00,36.9,20.4,29.97,WSW,248,4.0,4.6,51,0.00,OVC,SCT,0.00,0.0,WeatherDisplay:10.37,2013-01-07 21:15:00,
2013-01-07 15:21:00,36.9,20.9,29.97,WSW,248,3.8,5.8,52,0.00,OVC,SCT,0.00,0.0,WeatherDisplay:10.37,2013-01-07 21:21:00,
2013-01-07 15:26:00,36.7,20.2,29.94,WSW,248,3.1,4.6,51,0.00,OVC,SCT,0.00,0.0,WeatherDisplay:10.37,2013-01-07 21:26:00,
2013-01-07 15:31:00,36.9,20.4,29.94,WSW,248,3.3,4.6,51,0.00,OVC,SCT,0.00,0.0,WeatherDisplay:10.37,2013-01-07 21:31:00,
2013-01-07 15:36:00,36.9,20.4,29.94,WSW,248,3.8,4.6,51,0.00,OVC,SCT,0.00,0.0,WeatherDisplay:10.37,2013-01-07 21:36:00,
2013-01-07 15:41:00,36.9,20.4,29.94,WSW,248,3.6,4.6,51,0.00,OVC,SCT,0.00,0.0,WeatherDisplay:10.37,2013-01-07 21:41:00,
2013-01-07 15:46:00,36.9,20.4,29.94,WSW,248,2.9,4.6,51,0.00,OVC,SCT,0.00,0.0,WeatherDisplay:10.37,2013-01-07 21:46:00,
2013-01-07 15:51:00,36.9,20.4,29.94,SW,225,2.9,3.5,51,0.00,OVC,SCT,0.00,0.0,WeatherDisplay:10.37,2013-01-07 21:51:00,
2013-01-07 15:56:00,36.7,20.2,29.97,WSW,248,4.0,4.6,51,0.00,OVC,SCT,0.00,0.0,WeatherDisplay:10.37,2013-01-07 21:56:00,
2013-01-07 16:01:00,36.7,20.2,29.97,SSW,202,3.1,4.3,51,0.00,OVC,SCT,0.00,0.0,WeatherDisplay:10.37,2013-01-07 22:01:00,
2013-01-07 16:06:00,37.0,20.6,29.97,WSW,248,2.0,2.4,51,0.00,OVC,SCT,0.00,0.0,WeatherDisplay:10.37,2013-01-07 22:06:00,
2013-01-07 16:11:00,37.0,20.1,29.94,WSW,248,2.4,3.5,50,0.00,OVC,SCT,0.00,0.0,WeatherDisplay:10.37,2013-01-07 22:11:00,
2013-01-07 16:16:00,36.9,20.4,29.94,SSW,202,2.4,2.4,51,0.00,OVC,SCT,0.00,0.0,WeatherDisplay:10.37,2013-01-07 22:16:00,
2013-01-07 16:22:00,36.7,20.2,29.94,WSW,248,2.6,3.5,51,0.00,OVC,SCT,0.00,0.0,WeatherDisplay:10.37,2013-01-07 22:22:00,
2013-01-07 16:27:00,36.5,20.1,29.91,SW,225,1.6,2.3,51,0.00,OVC,SCT,0.00,0.0,WeatherDisplay:10.37,2013-01-07 22:27:00,
2013-01-07 16:32:00,36.3,19.9,29.91,WSW,248,2.4,3.5,51,0.00,OVC,SCT,0.00,0.0,WeatherDisplay:10.37,2013-01-07 22:32:00,
2013-01-07 16:37:00,36.3,20.4,29.91,SW,225,1.4,3.5,52,0.00,OVC,SCT,0.00,0.0,WeatherDisplay:10.37,2013-01-07 22:37:00,
2013-01-07 16:42:00,36.1,20.2,29.91,WSW,248,1.6,2.3,52,0.00,OVC,SCT,0.00,0.0,WeatherDisplay:10.37,2013-01-07 22:42:00,
2013-01-07 16:47:00,35.8,19.9,29.91,SW,225,2.2,2.3,52,0.00,OVC,SCT,0.00,0.0,WeatherDisplay:10.37,2013-01-07 22:47:00,
2013-01-07 16:52:00,35.6,19.7,29.91,SSW,202,1.4,1.6,52,0.00,OVC,SCT,0.00,0.0,WeatherDisplay:10.37,2013-01-07 22:52:00,
2013-01-07 16:58:00,35.4,20.0,29.94,SSW,202,0.0,1.1,53,0.00,OVC,SCT,0.00,0.0,WeatherDisplay:10.37,2013-01-07 22:58:00,
2013-01-07 17:03:00,35.1,19.6,29.94,South,180,0.0,1.6,53,0.00,OVC,SCT,0.00,0.0,WeatherDisplay:10.37,2013-01-07 23:03:00,
2013-01-07 17:08:00,34.9,19.5,29.94,ESE,112,0.9,1.1,53,0.00,OVC,SCT,0.00,0.0,WeatherDisplay:10.37,2013-01-07 23:08:00,
2013-01-07 17:13:00,34.5,19.1,29.91,South,180,0.0,1.1,53,0.00,OVC,SCT,0.00,0.0,WeatherDisplay:10.37,2013-01-07 23:13:00,
2013-01-07 17:18:00,34.3,19.4,29.91,South,180,0.0,0.0,54,0.00,OVC,SCT,0.00,0.0,WeatherDisplay:10.37,2013-01-07 23:18:00,
2013-01-07 17:23:00,34.0,18.6,29.91,South,180,0.0,0.0,53,0.00,OVC,SCT,0.00,0.0,WeatherDisplay:10.37,2013-01-07 23:23:00,
2013-01-07 17:28:00,33.8,18.9,29.91,WSW,248,0.0,0.0,54,0.00,OVC,SCT,0.00,0.0,WeatherDisplay:10.37,2013-01-07 23:28:00,
2013-01-07 17:34:00,33.4,18.6,29.91,WSW,248,0.0,0.0,54,0.00,OVC,SCT,0.00,0.0,WeatherDisplay:10.37,2013-01-07 23:34:00,
2013-01-07 17:39:00,33.3,19.2,29.91,NNW,338,1.1,2.3,56,0.00,OVC,SCT,0.00,0.0,WeatherDisplay:10.37,2013-01-07 23:39:00,
2013-01-07 17:44:00,33.1,19.5,29.94,NW,315,2.0,2.3,57,0.00,CLR,SCT,0.00,0.0,WeatherDisplay:10.37,2013-01-07 23:44:00,
2013-01-07 17:49:00,32.9,18.9,29.94,NW,315,0.0,0.0,56,0.00,CLR,SCT,0.00,0.0,WeatherDisplay:10.37,2013-01-07 23:49:00,
2013-01-07 17:54:00,32.7,18.7,29.94,NW,315,0.0,0.0,56,0.00,CLR,SCT,0.00,0.0,WeatherDisplay:10.37,2013-01-07 23:54:00,
2013-01-07 17:59:00,32.5,19.8,29.94,WNW,292,0.0,0.0,59,0.00,CLR,SCT,0.00,0.0,WeatherDisplay:10.37,2013-01-07 23:59:00,
2013-01-07 18:04:00,32.4,20.0,29.94,NW,315,1.4,2.3,60,0.00,CLR,SCT,0.00,0.0,WeatherDisplay:10.37,2013-01-08 00:04:00,
2013-01-07 18:09:00,32.2,19.4,29.94,NW,315,0.0,0.0,59,0.00,CLR,SCT,0.00,0.0,WeatherDisplay:10.37,2013-01-08 00:09:00,
2013-01-07 18:14:00,31.8,19.1,29.97,WSW,248,0.0,0.0,59,0.00,CLR,SCT,0.00,0.0,WeatherDisplay:10.37,2013-01-08 00:14:00,
2013-01-07 18:19:00,31.5,18.4,29.97,WSW,248,0.0,0.0,58,0.00,CLR,SCT,0.00,0.0,WeatherDisplay:10.37,2013-01-08 00:19:00,
2013-01-07 18:25:00,31.1,17.6,29.97,WSW,248,0.0,0.0,57,0.00,CLR,SCT,0.00,0.0,WeatherDisplay:10.37,2013-01-08 00:25:00,
2013-01-07 18:30:00,30.9,17.5,29.97,WSW,248,0.0,0.0,57,0.00,CLR,SCT,0.00,0.0,WeatherDisplay:10.37,2013-01-08 00:30:00,
2013-01-07 18:35:00,30.6,17.5,29.97,WSW,248,0.0,0.0,58,0.00,CLR,SCT,0.00,0.0,WeatherDisplay:10.37,2013-01-08 00:35:00,
2013-01-07 18:40:00,30.2,17.6,29.97,WSW,248,0.0,0.0,59,0.00,CLR,SCT,0.00,0.0,WeatherDisplay:10.37,2013-01-08 00:40:00,
2013-01-07 18:45:00,30.0,17.4,29.97,WSW,248,0.0,0.0,59,0.00,CLR,SCT,0.00,0.0,WeatherDisplay:10.37,2013-01-08 00:45:00,
2013-01-07 18:50:00,29.8,17.2,29.97,WSW,248,0.0,0.0,59,0.00,CLR,SCT,0.00,0.0,WeatherDisplay:10.37,2013-01-08 00:50:00,
2013-01-07 18:56:00,29.5,16.5,29.97,WSW,248,0.0,0.0,58,0.00,CLR,SCT,0.00,0.0,WeatherDisplay:10.37,2013-01-08 00:56:00,
2013-01-07 19:01:00,29.5,16.5,29.97,SSW,202,0.0,0.0,58,0.00,CLR,SCT,0.00,0.0,WeatherDisplay:10.37,2013-01-08 01:01:00,
2013-01-07 19:06:00,29.3,16.3,29.97,SSW,202,0.0,0.0,58,0.00,CLR,SCT,0.00,0.0,WeatherDisplay:10.37,2013-01-08 01:06:00,
2013-01-07 19:11:00,29.1,16.6,29.94,SSW,202,0.0,0.0,59,0.00,CLR,SCT,0.00,0.0,WeatherDisplay:10.37,2013-01-08 01:11:00,
2013-01-07 19:16:00,28.9,16.4,29.94,SSW,202,0.0,0.0,59,0.00,CLR,SCT,0.00,0.0,WeatherDisplay:10.37,2013-01-08 01:16:00,
2013-01-07 19:21:00,28.8,16.2,29.94,SSW,202,0.0,0.0,59,0.00,CLR,SCT,0.00,0.0,WeatherDisplay:10.37,2013-01-08 01:21:00,
2013-01-07 19:26:00,28.6,16.1,29.94,SSW,202,0.0,0.0,59,0.00,CLR,SCT,0.00,0.0,WeatherDisplay:10.37,2013-01-08 01:26:00,
2013-01-07 19:31:00,28.6,16.1,29.94,SSW,202,0.0,0.0,59,0.00,CLR,SCT,0.00,0.0,WeatherDisplay:10.37,2013-01-08 01:31:00,
2013-01-07 19:36:00,28.4,16.3,29.94,SSW,202,0.0,0.0,60,0.00,CLR,SCT,0.00,0.0,WeatherDisplay:10.37,2013-01-08 01:36:00,
2013-01-07 19:41:00,28.2,17.2,29.94,SSW,202,0.0,0.0,63,0.00,CLR,SCT,0.00,0.0,WeatherDisplay:10.37,2013-01-08 01:41:00,
2013-01-07 19:46:00,27.9,17.6,29.94,SSW,202,0.0,0.0,65,0.00,CLR,SCT,0.00,0.0,WeatherDisplay:10.37,2013-01-08 01:46:00,
2013-01-07 19:51:00,27.7,16.7,29.94,SSW,202,0.0,0.0,63,0.00,CLR,SCT,0.00,0.0,WeatherDisplay:10.37,2013-01-08 01:51:00,
2013-01-07 19:56:00,27.5,16.5,29.94,ESE,112,0.0,0.0,63,0.00,CLR,SCT,0.00,0.0,WeatherDisplay:10.37,2013-01-08 01:56:00,
2013-01-07 20:01:00,27.7,17.4,29.94,ENE,68,1.4,1.4,65,0.00,CLR,SCT,0.00,0.0,WeatherDisplay:10.37,2013-01-08 02:01:00,
2013-01-07 20:06:00,27.7,17.8,29.94,ENE,68,0.0,0.0,66,0.00,CLR,SCT,0.00,0.0,WeatherDisplay:10.37,2013-01-08 02:06:00,
2013-01-07 20:11:00,27.5,17.6,29.94,ENE,68,0.0,0.0,66,0.00,CLR,SCT,0.00,0.0,WeatherDisplay:10.37,2013-01-08 02:11:00,
2013-01-07 20:16:00,27.1,16.9,29.94,ENE,68,0.0,0.0,65,0.00,CLR,SCT,0.00,0.0,WeatherDisplay:10.37,2013-01-08 02:16:00,
2013-01-07 20:21:00,27.1,17.3,29.94,ENE,68,0.0,0.0,66,0.00,CLR,SCT,0.00,0.0,WeatherDisplay:10.37,2013-01-08 02:21:00,
2013-01-07 20:26:00,27.0,18.1,29.94,ENE,68,0.0,0.0,69,0.00,CLR,SCT,0.00,0.0,WeatherDisplay:10.37,2013-01-08 02:26:00,
2013-01-07 20:31:00,26.6,17.1,29.94,ENE,68,0.0,0.0,67,0.00,CLR,SCT,0.00,0.0,WeatherDisplay:10.37,2013-01-08 02:31:00,
2013-01-07 20:36:00,26.2,16.4,29.94,ENE,68,0.0,0.0,66,0.00,CLR,SCT,0.00,0.0,WeatherDisplay:10.37,2013-01-08 02:36:00,
2013-01-07 20:41:00,26.1,15.9,29.91,ENE,68,1.4,2.3,65,0.00,CLR,SCT,0.00,0.0,WeatherDisplay:10.37,2013-01-08 02:41:00,
2013-01-07 20:47:00,26.1,15.9,29.91,ENE,68,1.6,2.3,65,0.00,CLR,SCT,0.00,0.0,WeatherDisplay:10.37,2013-01-08 02:47:00,
2013-01-07 20:52:00,26.1,16.2,29.91,ENE,68,0.0,0.0,66,0.00,CLR,SCT,0.00,0.0,WeatherDisplay:10.37,2013-01-08 02:52:00,
2013-01-07 20:57:00,26.1,16.6,29.94,NE,45,0.0,0.0,67,0.00,CLR,SCT,0.00,0.0,WeatherDisplay:10.37,2013-01-08 02:57:00,
2013-01-07 21:02:00,26.1,16.6,29.94,ENE,68,0.0,0.0,67,0.00,CLR,SCT,0.00,0.0,WeatherDisplay:10.37,2013-01-08 03:02:00,
2013-01-07 21:07:00,26.1,16.6,29.94,East,90,1.4,1.4,67,0.00,CLR,SCT,0.00,0.0,WeatherDisplay:10.37,2013-01-08 03:07:00,
2013-01-07 21:12:00,26.2,18.4,29.94,NNE,22,1.1,2.3,72,0.00,CLR,SCT,0.00,0.0,WeatherDisplay:10.37,2013-01-08 03:12:00,
2013-01-07 21:17:00,26.2,17.8,29.94,NNE,22,0.0,0.0,70,0.00,CLR,SCT,0.00,0.0,WeatherDisplay:10.37,2013-01-08 03:17:00,
2013-01-07 21:22:00,26.2,17.4,29.94,NNE,22,0.0,0.0,69,0.00,CLR,SCT,0.00,0.0,WeatherDisplay:10.37,2013-01-08 03:22:00,
2013-01-07 21:27:00,26.1,17.3,29.94,East,90,1.1,1.1,69,0.00,CLR,SCT,0.00,0.0,WeatherDisplay:10.37,2013-01-08 03:27:00,
2013-01-07 21:32:00,26.1,16.9,29.94,ENE,68,0.0,0.0,68,0.00,CLR,SCT,0.00,0.0,WeatherDisplay:10.37,2013-01-08 03:32:00,
2013-01-07 21:37:00,26.1,17.3,29.94,NNE,22,0.0,0.0,69,0.00,CLR,SCT,0.00,0.0,WeatherDisplay:10.37,2013-01-08 03:37:00,
2013-01-07 21:42:00,25.5,17.4,29.94,NNE,22,0.0,0.0,71,0.00,CLR,SCT,0.00,0.0,WeatherDisplay:10.37,2013-01-08 03:42:00,
2013-01-07 21:47:00,25.3,16.9,29.94,NNE,22,0.0,0.0,70,0.00,CLR,SCT,0.00,0.0,WeatherDisplay:10.37,2013-01-08 03:47:00,
2013-01-07 21:52:00,24.6,16.6,29.94,NNW,338,0.0,0.0,71,0.00,CLR,SCT,0.00,0.0,WeatherDisplay:10.37,2013-01-08 03:52:00,
2013-01-07 21:57:00,24.3,15.9,29.91,NNW,338,0.0,0.0,70,0.00,CLR,SCT,0.00,0.0,WeatherDisplay:10.37,2013-01-08 03:57:00,
2013-01-07 22:02:00,23.9,15.5,29.91,NNW,338,0.0,0.0,70,0.00,CLR,SCT,0.00,0.0,WeatherDisplay:10.37,2013-01-08 04:02:00,
2013-01-07 22:07:00,23.5,14.9,29.91,NNE,22,0.0,0.0,69,0.00,CLR,SCT,0.00,0.0,WeatherDisplay:10.37,2013-01-08 04:07:00,
2013-01-07 22:12:00,23.5,15.2,29.94,NNE,22,0.0,0.0,70,0.00,CLR,SCT,0.00,0.0,WeatherDisplay:10.37,2013-01-08 04:12:00,
2013-01-07 22:17:00,23.7,15.4,29.94,NNE,22,0.0,0.0,70,0.00,CLR,SCT,0.00,0.0,WeatherDisplay:10.37,2013-01-08 04:17:00,
2013-01-07 22:22:00,23.9,15.9,29.94,NNE,22,0.0,0.0,71,0.00,CLR,SCT,0.00,0.0,WeatherDisplay:10.37,2013-01-08 04:22:00,
2013-01-07 22:27:00,23.5,16.2,29.94,NNW,338,0.0,0.0,73,0.00,CLR,SCT,0.00,0.0,WeatherDisplay:10.37,2013-01-08 04:27:00,
2013-01-07 22:32:00,23.4,15.7,29.94,NNW,338,0.0,0.0,72,0.00,CLR,SCT,0.00,0.0,WeatherDisplay:10.37,2013-01-08 04:32:00,
2013-01-07 22:38:00,23.2,15.2,29.94,NNW,338,0.0,0.0,71,0.00,CLR,SCT,0.00,0.0,WeatherDisplay:10.37,2013-01-08 04:38:00,
2013-01-07 22:43:00,22.8,14.8,29.94,NNW,338,0.0,0.0,71,0.00,CLR,SCT,0.00,0.0,WeatherDisplay:10.37,2013-01-08 04:43:00,
2013-01-07 22:48:00,23.0,15.6,29.94,NNW,338,0.0,0.0,73,0.00,CLR,SCT,0.00,0.0,WeatherDisplay:10.37,2013-01-08 04:48:00,
2013-01-07 22:53:00,22.8,15.5,29.94,NNW,338,0.0,0.0,73,0.00,CLR,SCT,0.00,0.0,WeatherDisplay:10.37,2013-01-08 04:53:00,
2013-01-07 22:58:00,22.6,15.0,29.94,NNW,338,0.0,0.0,72,0.00,CLR,SCT,0.00,0.0,WeatherDisplay:10.37,2013-01-08 04:58:00,
2013-01-07 23:00:00,22.5,14.8,29.94,NNW,338,0.0,0.0,72,0.00,CLR,SCT,0.00,0.0,WeatherDisplay:10.37,2013-01-08 05:00:00,
2013-01-07 23:02:00,22.5,15.1,29.94,NNW,338,0.0,0.0,73,0.00,CLR,SCT,0.00,0.0,WeatherDisplay:10.37,2013-01-08 05:02:00,
2013-01-07 23:03:00,22.6,15.3,29.94,NNW,338,0.0,0.0,73,0.00,CLR,SCT,0.00,0.0,WeatherDisplay:10.37,2013-01-08 05:03:00,
2013-01-07 23:04:00,22.6,15.3,29.94,NNW,338,0.0,0.0,73,0.00,CLR,SCT,0.00,0.0,WeatherDisplay:10.37,2013-01-08 05:04:00,
2013-01-07 23:09:00,22.3,16.2,29.94,NNW,338,0.0,0.0,77,0.00,CLR,SCT,0.00,0.0,WeatherDisplay:10.37,2013-01-08 05:09:00,
2013-01-07 23:14:00,21.9,15.2,29.94,NNW,338,0.0,0.0,75,0.00,CLR,SCT,0.00,0.0,WeatherDisplay:10.37,2013-01-08 05:14:00,
2013-01-07 23:20:00,21.6,14.6,29.94,NNW,338,0.0,0.0,74,0.00,CLR,SCT,0.00,0.0,WeatherDisplay:10.37,2013-01-08 05:20:00,
2013-01-07 23:25:00,21.6,15.2,29.94,NNW,338,0.0,0.0,76,0.00,CLR,SCT,0.00,0.0,WeatherDisplay:10.37,2013-01-08 05:25:00,
2013-01-07 23:30:00,21.2,14.8,29.94,NNW,338,0.0,0.0,76,0.00,CLR,SCT,0.00,0.0,WeatherDisplay:10.37,2013-01-08 05:30:00,
2013-01-07 23:35:00,21.2,14.8,29.94,NNW,338,0.0,0.0,76,0.00,CLR,SCT,0.00,0.0,WeatherDisplay:10.37,2013-01-08 05:35:00,
2013-01-07 23:40:00,21.2,14.5,29.94,NNW,338,0.0,0.0,75,0.00,CLR,SCT,0.00,0.0,WeatherDisplay:10.37,2013-01-08 05:40:00,
2013-01-07 23:45:00,21.4,14.7,29.94,NNW,338,0.0,0.0,75,0.00,CLR,SCT,0.00,0.0,WeatherDisplay:10.37,2013-01-08 05:45:00,
2013-01-07 23:50:00,21.9,15.5,29.94,NNW,338,0.0,0.0,76,0.00,CLR,SCT,0.00,0.0,WeatherDisplay:10.37,2013-01-08 05:50:00,
2013-01-07 23:55:00,22.3,15.9,29.91,NNW,338,0.0,0.0,76,0.00,CLR,SCT,0.00,0.0,WeatherDisplay:10.37,2013-01-08 05:55:00,